Columbia County, Pennsylvania, United States
Lat: 41.04N, Lon: 76.43W
Wx Zone: PAZ053
Local Info
Past Weather Observations for Friday, February 27, 2015

NOTE: This archive is for the closest National Weather Service station to Columbia County. Information may differ from the station used for current weather conditions.

Click here for Long-term Archive

Time Weather Temperature Dewpoint Humidity Pressure Winds Precip Visibility
23:53
Clear
16°F / -9°C -2°F / -19°C 45% 30.69 in
(1039 mb)
WNW 5.8 mph
(WNW 9 kph)
- 10SM
22:53
Clear
18°F / -8°C -2°F / -19°C 41% 30.66 in
(1038 mb)
WNW 9.2 mph
(WNW 15 kph)
- 10SM
21:53
Clear
18°F / -8°C -2°F / -19°C 41% 30.63 in
(1037 mb)
WNW 5.8 mph
(WNW 9 kph)
- 10SM
20:53
Clear
19°F / -7°C °F / -18°C 42% 30.6 in
(1036 mb)
Calm - 10SM
19:53
Clear
19°F / -7°C 1°F / -17°C 45% 30.57 in
(1035 mb)
Variable 4.6 mph
(Variable 7 kph)
- 10SM
18:53
Clear
21°F / -6°C 1°F / -17°C 42% 30.54 in
(1034 mb)
W 6.9 mph
(W 11 kph)
- 10SM
17:53
Clear
25°F / -4°C 3°F / -16°C 39% 30.51 in
(1033 mb)
W 5.8 mph
(W 9 kph)
- 10SM
16:53
Clear
25°F / -4°C 3°F / -16°C 39% 30.48 in
(1032 mb)
NW 6.9 mph
(NW 11 kph)
- 10SM
15:53
Clear
27°F / -3°C 3°F / -16°C 36% 30.45 in
(1031 mb)
NW 8.1 mph
(NW 13 kph)
- 10SM
14:53
Partly Cloudy
27°F / -3°C 5°F / -15°C 39% 30.45 in
(1031 mb)
W 9.2 mph
(W 15 kph)
- 10SM
13:53
Clear
23°F / -5°C 3°F / -16°C 42% 30.42 in
(1030 mb)
Variable 3.5 mph
(Variable 6 kph)
- 10SM
12:53
Clear
23°F / -5°C 3°F / -16°C 42% 30.45 in
(1031 mb)
Calm - 10SM
11:53
Clear
21°F / -6°C 3°F / -16°C 45% 30.45 in
(1031 mb)
Calm - 10SM
10:53
Clear
19°F / -7°C 3°F / -16°C 49% 30.45 in
(1031 mb)
Variable 4.6 mph
(Variable 7 kph)
- 10SM
09:53
Clear
18°F / -8°C 3°F / -16°C 53% 30.45 in
(1031 mb)
N 5.8 mph
(N 9 kph)
- 10SM
08:53
Overcast
16°F / -9°C 1°F / -17°C 53% 30.42 in
(1030 mb)
N 6.9 mph
(N 11 kph)
- 10SM
07:53
Clear
14°F / -10°C 3°F / -16°C 62% 30.39 in
(1029 mb)
N 5.8 mph
(N 9 kph)
- 10SM
06:53
Partly Cloudy
12°F / -11°C 3°F / -16°C 67% 30.36 in
(1028 mb)
ENE 5.8 mph
(ENE 9 kph)
- 10SM
05:53
Overcast
14°F / -10°C 3°F / -16°C 62% 30.33 in
(1027 mb)
NNE 6.9 mph
(NNE 11 kph)
- 10SM
04:53
Mostly Cloudy
14°F / -10°C 7°F / -14°C 73% 30.3 in
(1026 mb)
N 5.8 mph
(N 9 kph)
- 10SM
03:53
Overcast
16°F / -9°C 7°F / -14°C 67% 30.27 in
(1025 mb)
NNE 8.1 mph
(NNE 13 kph)
- 10SM
02:53
Overcast
18°F / -8°C 7°F / -14°C 62% 30.24 in
(1024 mb)
NE 8.1 mph
(NE 13 kph)
- 10SM
01:53
Overcast
18°F / -8°C 9°F / -13°C 68% 30.21 in
(1023 mb)
NNE 10.4 mph
(NNE 17 kph)
- 10SM
00:53
Overcast
16°F / -9°C 10°F / -12°C 79% 30.18 in
(1022 mb)
N 4.6 mph
(N 7 kph)
- 10SM
Time Weather Temperature Dewpoint Humidity Pressure Winds Precip Visibility


Weather for websites

WeatherForYou.com, LLC is not responsible for any damages or problems caused by this service. Current weather conditions are obtained from the closest station including government and personal stations which may have varying degrees of accuracy. Weather forecasts are derived from the NOAA NDFD. Like all things, this site belongs to Jesus Christ... He just trusts me to maintain it. If you have any questions or comments email webmaster@weatherforyou.com

Copyright © 2015, WeatherForYou.com LLC. All rights reserved.